Location: Pitton
(51.0667°N, 1.7000°W)
Time: 05:31:48
(UTC+00:00)

HJ-1C - Pass Details

Date: 17 September 2019
Orbit: 434 x 449 km, 97.2° (Epoch: 23 October)

Event Time Altitude Azimuth Distance (km) Brightness Sun altitude
Rises 18:57:19 0° 162° (SSE) 2,435 6.8 -7.1°
Reaches altitude 10° 18:59:19 10° 161° (SSE) 1,572 5.8 -7.4°
Maximum altitude 19:02:41 77° 76° (ENE) 468 3.3 -7.9°
Drops below altitude 10° 19:06:06 10° 350° (N) 1,592 6.5 -8.4°
Sets 19:08:09 0° 349° (NNW) 2,471 7.5 -8.7°
